[[{"header":{"parameterUnit":"m.s-1","parameterCategory":1,"la1":30.2991,"la2":30.254,"lo1":-89.0895,"lo2":-89.0444,"dx":0.0017,"dy":0.0017,"nx":28,"ny":28,"refTime":"2022-12-16T09:00:00:Z","depth":0,"parameterNumber":2,"parameterNumberName":"U-component_of_WINDS"},"data":[0,0,0,0,0,0,0,0,0,0,0,0,0,0,0,0,0,0,0,0,0,0,0,0,0,0,0,0,0,0,0,0,0,0,0,0,0,0,0,0,0,0,0,0,0,0,0,0,0,0,0,0,0,0,0,0,0,0,-0.3125,-0.3125,0,-0.311,-0.311,-0.311,-0.3065,-0.3064,-0.3063,-0.3062,-0.3048,-0.3048,-0.3049,0,0,0,0,0,0,0,0,0,0,0,0,0,-0.3118,-0.3118,-0.3125,-0.3125,-0.3125,-0.311,-0.311,-0.311,-0.3065,-0.3064,-0.3063,-0.3062,-0.3048,-0.3048,-0.3049,0,0,0,0,0,0,0,0,0,0,0,0,0,-0.3114,-0.3118,-0.3125,-0.3101,-0.3099,-0.311,-0.311,-0.3109,-0.3065,-0.3064,-0.3063,-0.3061,-0.3048,-0.3048,-0.3049,-0.3083,0,0,-0.3051,-0.3052,0,0,0,0,0,0,0,0,-0.3114,-0.3114,-0.3105,-0.3103,-0.31,-0.3088,-0.3102,-0.3101,-0.3066,-0.3078,-0.3062,-0.306,-0.3062,-0.3062,-0.3062,-0.3083,-0.3082,-0.3052,-0.3052,-0.3052,-0.3053,0,0,0,0,0,0,0,-0.3114,-0.3114,-0.3119,-0.3105,-0.3102,-0.3091,-0.3089,-0.3101,-0.3079,-0.3077,-0.3074,-0.3072,-0.3061,-0.3062,-0.3062,-0.3082,-0.3052,-0.3052,-0.3053,-0.3053,-0.3129,-0.3131,0,0,0,0,0,0,-0.3118,-0.3115,-0.312,-0.3119,-0.3104,-0.3093,-0.309,-0.3093,-0.3078,-0.3075,-0.3074,-0.307,-0.3061,-0.3061,-0.3061,-0.31,-0.3052,-0.3053,-0.3054,-0.3128,-0.313,-0.3131,0,0,0,0,0,0,-0.3118,-0.3119,-0.312,-0.3116,-0.3115,-0.3094,-0.3098,-0.3094,-0.3094,-0.3076,-0.3072,-0.3078,-0.306,-0.306,-0.3078,-0.3099,-0.3053,-0.3054,-0.3126,-0.3128,-0.313,-0.3179,0,0,0,0,0,0,-0.3118,-0.3119,-0.3132,-0.3117,-0.3116,-0.3137,-0.3099,-0.3095,-0.3096,-0.3091,-0.3079,-0.3076,-0.3059,-0.3077,-0.3079,-0.3099,-0.3055,-0.3124,-0.3127,-0.313,-0.3175,-0.3183,-0.3189,0,0,0,0,0,-0.3118,-0.3146,-0.3132,-0.3133,-0.3131,-0.3139,-0.3138,-0.3117,-0.3098,-0.311,-0.3098,-0.3076,-0.3096,-0.3079,-0.3081,-0.3102,-0.3123,-0.3126,-0.313,-0.3172,-0.3181,-0.3189,0,0,0,0,0,0,-0.3165,-0.3144,-0.3128,-0.3153,-0.3148,-0.3131,-0.3146,-0.3127,-0.3129,-0.3124,-0.3099,-0.3096,-0.3118,-0.3112,-0.3093,-0.3134,-0.3106,-0.311,-0.3138,-0.3146,-0.3153,-0.3154,-0.3055,0,0,0,0,0,-0.3178,-0.3185,-0.3167,-0.319,-0.3188,-0.3168,-0.3171,-0.3155,-0.3149,-0.3147,-0.3136,-0.3132,-0.3137,-0.3141,-0.3145,-0.3174,-0.3171,-0.3189,-0.3196,-0.3202,-0.3206,-0.3221,-0.3229,-0.3143,-0.3143,-0.3143,0,0,-0.3205,-0.3195,-0.3201,-0.3199,-0.3194,-0.3203,-0.3167,-0.3178,-0.3184,-0.3149,-0.3165,-0.3157,-0.315,-0.3174,-0.3184,-0.317,-0.3229,-0.3206,-0.3211,-0.3212,-0.3226,-0.3234,-0.3241,-0.3145,-0.3145,-0.3144,0,0,-0.326,-0.3252,-0.3271,-0.3266,-0.3257,-0.3244,-0.3248,-0.3234,-0.3228,-0.3244,-0.3217,-0.3225,-0.3234,-0.3231,-0.323,-0.3283,-0.3263,-0.3285,-0.332,-0.3336,-0.3342,-0.3348,-0.3368,-0.3375,-0.3289,-0.3289,-0.3289,0,-0.3295,-0.3307,-0.3283,-0.3296,-0.3296,-0.3263,-0.3282,-0.3279,-0.3272,-0.3273,-0.3257,-0.3268,-0.3261,-0.3284,-0.3297,-0.3297,-0.3302,-0.3286,-0.3343,-0.3349,-0.3354,-0.3373,-0.338,-0.3292,-0.3291,-0.3291,-0.3291,0,-0.3351,-0.336,-0.3376,-0.337,-0.3372,-0.3388,-0.3366,-0.3371,-0.3355,-0.3343,-0.336,-0.3351,-0.3352,-0.3356,-0.3341,-0.3377,-0.3368,-0.3348,-0.3319,-0.3366,-0.3382,-0.3389,-0.3296,-0.3295,-0.3294,-0.3293,0,0,-0.3435,-0.3415,-0.3422,-0.3419,-0.3407,-0.3414,-0.3428,-0.3429,-0.3434,-0.343,-0.3442,-0.3451,-0.3432,-0.3431,-0.3415,-0.3429,-0.3472,-0.3407,-0.3406,-0.342,-0.3512,-0.3528,-0.3536,-0.3458,-0.3459,-0.346,-0.3512,0,-0.3487,-0.351,-0.3489,-0.3517,-0.3525,-0.3494,-0.3506,-0.3501,-0.349,-0.3496,-0.3484,-0.349,-0.3465,-0.3464,-0.3476,-0.3464,-0.349,-0.346,-0.347,-0.347,-0.3473,-0.3545,-0.3562,-0.3611,-0.3519,-0.352,-0.3521,0,-0.3551,-0.355,-0.3579,-0.3565,-0.3567,-0.3579,-0.3578,-0.3584,-0.3577,-0.3568,-0.3567,-0.3547,-0.3561,-0.3532,-0.3551,-0.3531,-0.3534,-0.3528,-0.353,-0.3531,-0.3499,-0.3548,-0.3627,-0.3634,-0.3531,-0.353,-0.3529,0,-0.3611,-0.3617,-0.3634,-0.3632,-0.3617,-0.3626,-0.362,-0.3611,-0.3613,-0.3613,-0.3614,-0.3615,-0.3616,-0.3617,-0.3598,-0.3579,-0.362,-0.3589,-0.3614,-0.3614,-0.3624,-0.3624,-0.3705,-0.3625,-0.3625,-0.3625,-0.3625,0,-0.3672,-0.369,-0.3661,-0.3672,-0.3692,-0.3667,-0.3688,-0.3679,-0.3671,-0.3681,-0.3654,-0.3663,-0.3637,-0.3644,-0.3629,-0.3647,-0.3647,-0.3641,-0.3637,-0.3644,-0.3645,-0.3646,-0.3643,-0.3627,-0.3626,-0.3626,-0.3626,0,-0.3742,-0.3723,-0.374,-0.3724,-0.372,-0.3736,-0.3722,-0.3732,-0.3719,-0.373,-0.3732,-0.3712,-0.3718,-0.3699,-0.3703,-0.3693,-0.372,-0.3709,-0.3722,-0.3719,-0.3745,-0.3743,-0.383,-0.384,-0.3753,-0.3754,-0.3755,0,-0.3782,-0.3796,-0.3781,-0.3785,-0.378,-0.3787,-0.3788,-0.3764,-0.3767,-0.376,-0.3771,-0.3775,-0.3777,-0.3789,-0.3775,-0.3778,-0.3768,-0.3798,-0.3768,-0.3775,-0.3769,-0.3769,-0.3771,-0.3805,-0.3806,-0.3807,-0.3808,0,-0.3857,-0.3846,-0.3849,-0.3849,-0.3852,-0.3851,-0.3848,-0.3852,-0.3827,-0.3832,-0.3837,-0.3839,-0.3842,-0.3847,-0.3846,-0.3841,-0.3821,-0.3817,-0.3823,-0.383,-0.3837,-0.3835,-0.374,-0.3815,-0.3815,-0.3814,-0.3814,-0.3813,-0.3914,-0.3924,-0.3915,-0.392,-0.3915,-0.3913,-0.3921,-0.3909,-0.3913,-0.3914,-0.3899,-0.3908,-0.3901,-0.3898,-0.3895,-0.3902,-0.3888,-0.3896,-0.3899,-0.3901,-0.3906,-0.3836,-0.3902,-0.3901,-0.3901,-0.3901,-0.3901,0,-0.3987,-0.3979,-0.3984,-0.398,-0.3984,-0.3963,-0.3959,-0.3963,-0.3971,-0.3966,-0.3968,-0.3975,-0.398,-0.3966,-0.3968,-0.3977,-0.3967,-0.3978,-0.3978,-0.3977,-0.3918,-0.3913,-0.3986,-0.3986,-0.3986,-0.3986,-0.3986,-0.3986,-0.4026,-0.4043,-0.4031,-0.4046,-0.4038,-0.4046,-0.4046,-0.4044,-0.4039,-0.4048,-0.4051,-0.4042,-0.4034,-0.4035,-0.4038,-0.4034,-0.4037,-0.4051,-0.4044,-0.3989,-0.3981,-0.3973,-0.3968,-0.4052,-0.4052,-0.4103,-0.4103,-0.4103]},{"header":{"parameterUnit":"m.s-1","parameterCategory":1,"la1":30.2991,"la2":30.254,"lo1":-89.0895,"lo2":-89.0444,"dx":0.0017,"dy":0.0017,"nx":28,"ny":28,"refTime":"2022-12-16T09:00:00:Z","depth":0,"parameterNumber":3,"parameterNumberName":"V-component_of_WINDS"},"data":[0,0,0,0,0,0,0,0,0,0,0,0,0,0,0,0,0,0,0,0,0,0,0,0,0,0,0,0,0,0,0,0,0,0,0,0,0,0,0,0,0,0,0,0,0,0,0,0,0,0,0,0,0,0,0,0,0,0,-2.7982,-2.7983,0,-2.8034,-2.8035,-2.8035,-2.8032,-2.8031,-2.803,-2.803,-2.8079,-2.8081,-2.8083,0,0,0,0,0,0,0,0,0,0,0,0,0,-2.7878,-2.788,-2.7982,-2.7983,-2.7984,-2.8034,-2.8035,-2.8035,-2.8032,-2.8031,-2.803,-2.8029,-2.8079,-2.8081,-2.8083,0,0,0,0,0,0,0,0,0,0,0,0,0,-2.7926,-2.7881,-2.7982,-2.7988,-2.7989,-2.8034,-2.8035,-2.8035,-2.8032,-2.8031,-2.803,-2.8029,-2.8078,-2.8081,-2.8084,-2.8125,0,0,-2.8093,-2.8094,0,0,0,0,0,0,0,0,-2.7923,-2.793,-2.7986,-2.7988,-2.7989,-2.8025,-2.8016,-2.8065,-2.8032,-2.8016,-2.8029,-2.8028,-2.8062,-2.8066,-2.8078,-2.8127,-2.8129,-2.8093,-2.8095,-2.8096,-2.8097,0,0,0,0,0,0,0,-2.792,-2.7927,-2.8003,-2.7987,-2.7989,-2.7987,-2.7993,-2.8025,-2.8044,-2.8017,-2.8017,-2.8023,-2.8062,-2.8075,-2.8079,-2.813,-2.8093,-2.8096,-2.8098,-2.8099,-2.8217,-2.8218,0,0,0,0,0,0,-2.7916,-2.7925,-2.8001,-2.8004,-2.7953,-2.799,-2.7996,-2.8015,-2.8044,-2.8047,-2.8024,-2.8023,-2.8071,-2.8076,-2.8081,-2.8133,-2.8096,-2.8099,-2.8101,-2.8216,-2.8217,-2.8219,0,0,0,0,0,0,-2.7913,-2.7922,-2.7999,-2.7964,-2.7974,-2.7993,-2.8014,-2.8016,-2.8029,-2.8049,-2.8053,-2.8034,-2.807,-2.8077,-2.8115,-2.8135,-2.8101,-2.8103,-2.8214,-2.8216,-2.8218,-2.8236,0,0,0,0,0,0,-2.791,-2.7922,-2.7938,-2.7965,-2.7976,-2.8032,-2.8015,-2.8018,-2.8035,-2.8034,-2.806,-2.8063,-2.807,-2.811,-2.8118,-2.8138,-2.8106,-2.8212,-2.8215,-2.8217,-2.8234,-2.8238,-2.8242,0,0,0,0,0,-2.7907,-2.794,-2.7939,-2.7948,-2.7997,-2.8034,-2.804,-2.8048,-2.8037,-2.8053,-2.8066,-2.8062,-2.8131,-2.8114,-2.8122,-2.8144,-2.8211,-2.8214,-2.8217,-2.8232,-2.8237,-2.8242,0,0,0,0,0,0,-2.7913,-2.7944,-2.7943,-2.7986,-2.8007,-2.8033,-2.8054,-2.8053,-2.8078,-2.8075,-2.8083,-2.8089,-2.8128,-2.8139,-2.812,-2.8186,-2.8169,-2.8174,-2.8178,-2.8183,-2.8187,-2.8184,-2.8108,0,0,0,0,0,-2.792,-2.7948,-2.7972,-2.8008,-2.8019,-2.8035,-2.8051,-2.8056,-2.8078,-2.8086,-2.8102,-2.8123,-2.8149,-2.8167,-2.8192,-2.8235,-2.8241,-2.8254,-2.8258,-2.8262,-2.8266,-2.8291,-2.8298,-2.8228,-2.8228,-2.8228,0,0,-2.7934,-2.7954,-2.7971,-2.801,-2.8027,-2.8056,-2.8042,-2.8073,-2.8094,-2.809,-2.8128,-2.814,-2.8164,-2.8205,-2.8224,-2.8216,-2.8286,-2.8265,-2.8268,-2.8271,-2.8295,-2.8301,-2.8307,-2.8231,-2.823,-2.823,0,0,-2.7974,-2.7992,-2.8024,-2.8042,-2.8069,-2.808,-2.8087,-2.8113,-2.8122,-2.816,-2.8159,-2.8183,-2.8228,-2.8246,-2.8261,-2.8309,-2.8306,-2.8316,-2.8339,-2.8364,-2.8369,-2.8374,-2.8393,-2.8399,-2.832,-2.832,-2.832,0,-2.7988,-2.8032,-2.8041,-2.8073,-2.809,-2.809,-2.8123,-2.8139,-2.8172,-2.8184,-2.8175,-2.8233,-2.8248,-2.8295,-2.8307,-2.8318,-2.8327,-2.8314,-2.8368,-2.8373,-2.8377,-2.8395,-2.8402,-2.8322,-2.8321,-2.8321,-2.8321,0,-2.8048,-2.8079,-2.8102,-2.8136,-2.8156,-2.8188,-2.8201,-2.822,-2.8223,-2.8234,-2.8273,-2.8292,-2.8322,-2.8333,-2.8335,-2.838,-2.8374,-2.8366,-2.835,-2.8385,-2.8402,-2.8409,-2.8323,-2.8323,-2.8323,-2.8322,0,0,-2.8095,-2.8134,-2.8143,-2.8159,-2.8189,-2.8213,-2.8244,-2.8275,-2.8292,-2.8314,-2.8342,-2.838,-2.8374,-2.8391,-2.8395,-2.8416,-2.8455,-2.8406,-2.8406,-2.8416,-2.8507,-2.8514,-2.8522,-2.8453,-2.8454,-2.8455,-2.8505,0,-2.814,-2.8198,-2.8207,-2.8259,-2.8288,-2.8288,-2.8315,-2.8337,-2.8348,-2.8373,-2.8385,-2.8413,-2.8401,-2.8412,-2.8433,-2.8446,-2.8474,-2.8442,-2.8479,-2.848,-2.8475,-2.853,-2.8538,-2.8585,-2.8512,-2.8513,-2.8514,0,-2.82,-2.8227,-2.8281,-2.8309,-2.8321,-2.8346,-2.8376,-2.84,-2.8424,-2.8431,-2.845,-2.8452,-2.8485,-2.8466,-2.8512,-2.849,-2.8505,-2.8514,-2.8516,-2.8521,-2.85,-2.8539,-2.8599,-2.8607,-2.8524,-2.8523,-2.8523,0,-2.8231,-2.828,-2.832,-2.8333,-2.8366,-2.8384,-2.8398,-2.8421,-2.8439,-2.8464,-2.8476,-2.8504,-2.852,-2.8541,-2.8551,-2.8536,-2.8596,-2.8578,-2.8603,-2.8603,-2.8617,-2.8617,-2.8683,-2.8624,-2.8624,-2.8624,-2.8624,0,-2.8281,-2.8315,-2.8334,-2.8359,-2.8397,-2.8406,-2.8443,-2.8457,-2.8477,-2.8504,-2.8505,-2.8529,-2.854,-2.8566,-2.8573,-2.8611,-2.8617,-2.8623,-2.8625,-2.8625,-2.8624,-2.8636,-2.8634,-2.8626,-2.8625,-2.8625,-2.8625,0,-2.8322,-2.8337,-2.838,-2.8408,-2.8416,-2.8443,-2.8466,-2.849,-2.8501,-2.8535,-2.8543,-2.856,-2.8592,-2.8603,-2.864,-2.8645,-2.8689,-2.8687,-2.8682,-2.8683,-2.8708,-2.8706,-2.8786,-2.8798,-2.8729,-2.873,-2.873,0,-2.8354,-2.8381,-2.8412,-2.8431,-2.8447,-2.8476,-2.8496,-2.8506,-2.8526,-2.8556,-2.8576,-2.8607,-2.8633,-2.8683,-2.8698,-2.8727,-2.8727,-2.8753,-2.8731,-2.873,-2.8729,-2.8728,-2.8732,-2.8757,-2.8758,-2.8758,-2.8759,0,-2.841,-2.8417,-2.8445,-2.8477,-2.85,-2.8525,-2.8549,-2.8564,-2.8578,-2.86,-2.8633,-2.8653,-2.8692,-2.8724,-2.8753,-2.8767,-2.8766,-2.8765,-2.8773,-2.8774,-2.877,-2.8774,-2.8695,-2.8764,-2.8763,-2.8763,-2.8763,-2.8762,-2.8449,-2.8474,-2.85,-2.8533,-2.8552,-2.8575,-2.8599,-2.8614,-2.8642,-2.8676,-2.868,-2.8715,-2.8739,-2.8779,-2.8794,-2.8821,-2.8814,-2.8825,-2.8828,-2.8831,-2.8834,-2.8765,-2.8826,-2.8826,-2.8826,-2.8826,-2.8826,0,-2.8507,-2.8525,-2.8554,-2.8589,-2.8614,-2.8612,-2.8638,-2.866,-2.8692,-2.8714,-2.874,-2.8778,-2.8809,-2.8827,-2.8858,-2.8876,-2.8877,-2.8884,-2.8884,-2.8887,-2.8838,-2.8829,-2.8884,-2.8884,-2.8884,-2.8884,-2.8884,-2.8884,-2.854,-2.8582,-2.8591,-2.8643,-2.8659,-2.8696,-2.8712,-2.8732,-2.8751,-2.8794,-2.8821,-2.8832,-2.8853,-2.8886,-2.8914,-2.8918,-2.893,-2.8939,-2.8943,-2.8896,-2.889,-2.8885,-2.8877,-2.8941,-2.8941,-2.899,-2.8991,-2.8991]}]]